Phoenix Deer Valley, AZ

3:17 AM MST on December 09, 2019 (GMT -0700)
Phoenix-Deer Valley Municipal

Weather History for KDVT - August, 2019

Change the Weather History Date:

Tuesday, August 27, 2019

  Actual Average Record
Temperature  
Mean Temperature 95 °F -  
Max Temperature 108 °F 98 °F 109 °F (2005)
Min Temperature 82 °F 79 °F 73 °F (2003)
Cooling Degree Days 30    
Growing Degree Days 45 (Base 50)    
Moisture  
Dew Point 59 °F    
Average Humidity 29    
Maximum Humidity 44    
Minimum Humidity 19    
Precipitation  
Precipitation 0.00 in - - ()
Sea Level Pressure  
Sea Level Pressure 29.70 in    
Wind  
Wind Speed 4 mph ()    
Max Wind Speed 20 mph    
Max Gust Speed 24 mph    
Visibility 10.0 miles    
Events      
Averages and records for this station are not official NWS values.
T = Trace of Precipitation, MM = Missing Value Source: Averaged Metar Reports

Daily Weather History Graph

Daily Weather History Graph

Search for Another Location

Airport or City:

Astronomy

Aug. 27, 2019 Rise Set
Actual Time 5:58 AM MST 7:00 PM MST
Civil Twilight 5:33 AM MST 7:26 PM MST
Nautical Twilight 5:02 AM MST 7:56 PM MST
Astronomical Twilight 4:31 AM MST 8:27 PM MST
Moon 2:37 AM MST (8/27) 5:15 PM MST (8/27)
Length of Visible Light 13h 53m
Length of Day
13h 01m
Waning Crescent, 10% of the Moon is Illuminated
Aug 27
Waning Crescent
Aug 30
New
Sep 5
First Quarter
Sep 13
Full
Sep 21
Last Quarter

Hourly Weather History & Observations

Time (MST) Temp. Heat Index Dew Point Humidity Pressure Visibility Wind Dir Wind Speed Gust Speed Precip Events Conditions
12:53 AM 91.9 °F 91.2 °F 59.0 °F 33% 29.69 in 10.0 mi Calm Calm - N/A   Clear
1:53 AM 89.1 °F 88.0 °F 57.9 °F 35% 29.69 in 10.0 mi Calm Calm - N/A   Clear
2:53 AM 86.0 °F 85.0 °F 57.9 °F 38% 29.69 in 10.0 mi Calm Calm - N/A   Clear
3:53 AM 86.0 °F 85.0 °F 57.9 °F 38% 29.70 in 10.0 mi Calm Calm - N/A   Clear
4:53 AM 87.1 °F 86.7 °F 60.1 °F 40% 29.70 in 10.0 mi Calm Calm - N/A   Clear
5:53 AM 82.9 °F 82.8 °F 59.0 °F 44% 29.72 in 10.0 mi ESE 3.5 mph - N/A   Clear
6:53 AM 87.1 °F 87.8 °F 63.0 °F 44% 29.74 in 10.0 mi ESE 3.5 mph - N/A   Clear
7:53 AM 90.0 °F 90.3 °F 62.1 °F 39% 29.75 in 10.0 mi Calm Calm - N/A   Clear
8:53 AM 91.9 °F 92.5 °F 62.1 °F 37% 29.75 in 10.0 mi Calm Calm - N/A   Clear
9:53 AM 96.1 °F 96.9 °F 62.1 °F 32% 29.75 in 10.0 mi Calm Calm - N/A   Clear
10:53 AM 99.0 °F 98.6 °F 59.0 °F 26% 29.75 in 10.0 mi South 9.2 mph - N/A   Clear
11:08 AM 100.0 °F 100.2 °F 59.0 °F 26% 29.83 in 10.0 mi SSW 8.1 mph - N/A   Clear
11:53 AM 102.0 °F 102.2 °F 59.0 °F 24% 29.73 in 10.0 mi WSW 9.2 mph - N/A   Clear
12:53 PM 105.1 °F 107.8 °F 62.1 °F 25% 29.70 in 10.0 mi WSW 11.5 mph - N/A   Clear
1:53 PM 106.0 °F 107.8 °F 61.0 °F 23% 29.68 in 10.0 mi SW 12.7 mph 18.4 mph N/A   Clear
2:53 PM 108.0 °F 110.3 °F 61.0 °F 22% 29.66 in 10.0 mi WSW 10.4 mph 17.3 mph N/A   Clear
3:53 PM 108.0 °F 108.0 °F 57.9 °F 19% 29.64 in 10.0 mi WSW 17.3 mph - N/A   Clear
4:53 PM 108.0 °F 109.5 °F 60.1 °F 21% 29.62 in 10.0 mi SW 19.6 mph - N/A   Clear
5:53 PM 106.0 °F 106.4 °F 59.0 °F 21% 29.63 in 10.0 mi SW 17.3 mph 24.2 mph N/A   Clear
6:53 PM 104.0 °F 104.0 °F 57.9 °F 22% 29.63 in 10.0 mi SW 15.0 mph - N/A   Clear
7:53 PM 102.0 °F 101.6 °F 57.9 °F 23% 29.66 in 10.0 mi SW 11.5 mph - N/A   Clear
8:53 PM 100.9 °F 100.0 °F 57.0 °F 23% 29.69 in 10.0 mi SW 9.2 mph - N/A   Clear
9:53 PM 100.0 °F 98.3 °F 55.0 °F 22% 29.70 in 10.0 mi WSW 6.9 mph - N/A   Clear
10:53 PM 97.0 °F 95.0 °F 55.0 °F 24% 29.70 in 10.0 mi WSW 4.6 mph - N/A   Clear
11:53 PM 95.0 °F 93.0 °F 55.0 °F 26% 29.71 in 10.0 mi Calm Calm - N/A   Clear